Terminal Aerodrome Forecast
Issued by NWS Atlanta, GA

Home | Current Version | Previous Version | Text Only | Print | Product List | Glossary On
Versions: 1 2 3 4 5 6 7 8 9 10 11 12 13 14 15 16 17 18 19 20 21 22 23 24 25 26 27 28 29 30 31 32 33 34 35 36 37 38 39 40 41 42 43 44 45 46
000
FTUS42 KFFC 161500 AAB
TAFATL
TAF AMD
KATL 161557Z 1616/1718 32007KT P6SM BKN015
      TEMPO 1616/1618 SCT015
     FM161800 33009KT P6SM SCT025 BKN040
     FM162000 33010KT P6SM VCSH SCT045 BKN120
     FM170200 35006KT P6SM BKN250
     FM171400 33008KT P6SM SCT250=

USA.gov is the U.S. government's official web portal to all federal, state and local government web resources and services.